Location: Kott?ru
(16.6209°N, 80.6208°E)
Time: 04:31:57
(UTC+00:00)

Hubble Space Telescope - Pass Details

Date: 07 February 2023
Orbit: 527 x 530 km, 28.5° (Epoch: 27 March)

Event Time Altitude Azimuth Distance (km) Brightness Sun altitude
Exits shadow 23:08:50 23° 149° (SSE) 1,157 2.8 -28.4°
Drops below altitude 10° 23:10:34 10° 136° (SE) 1,761 4.0 -28.0°
Sets 23:12:53 0° 129° (SE) 2,650 5.2 -27.5°
